Powrót do katalogu

STARLINK-32810

AktywnyŁącznośćVLEO
NORAD 63037·PAYLOAD·🇺🇸 United States

Wystrzelony Feb 18, 2025 z Cape Canaveral Space Force Station

Loading…

Następne Przeloty (najbliższe 24 godziny)

TLE

ŚwieżeSource: CelesTrak SupGP

Epoka: Sep 14, 2026, 20:41 UTC

1 63037C 25034J   26257.86229167 -.00022869  00000+0 -67576-3 0  2575
2 63037  53.1565  96.2260 0001269  91.2079 329.0352 15.34397276    19

Śledź STARLINK-32810 w czasie rzeczywistym z AllMySat

Download on the App Store